EW3360 Weather Reports


time (UTC)temp
F
wind
direction
speed
knots
gust
knots
rain 1hr
in
rain 24hr
in
rain mn
in
humidity
%
barometer
mb
20190627060056 61 306 0.0 0.0 0.00 0.00 0.00 35 1023.2
20190627054606 61 306 0.0 0.0 0.00 0.00 0.00 29 1023.3
20190627053104 62 306 0.0 0.0 0.00 0.00 0.00 27 1023.2
20190627051602 62 306 0.0 0.0 0.00 0.00 0.00 23 1023.3
20190627050037 63 306 0.0 0.0 0.00 0.00 0.00 18 1023.5
20190627044537 63 306 0.0 0.0 0.00 0.00 0.00 15 1023.4
20190627043012 64 306 0.0 0.0 0.00 0.00 0.00 12 1023.4
20190627041508 64 306 0.0 0.0 0.00 0.00 0.00 8 1023.3
20190627040144 64 306 0.0 0.0 0.00 0.00 0.00 9 1023.2
20190627034705 64 306 0.0 0.0 0.00 0.00 0.00 10 1023.2
20190627033140 65 306 0.0 0.0 0.00 0.00 0.00 7 1023.0
20190627031558 65 306 0.0 0.0 0.00 0.00 0.00 10 1023.1
20190627030132 65 306 0.0 0.0 0.00 0.00 0.00 13 1023.0
20190627024704 66 306 0.0 0.0 0.00 0.00 0.00 11 1023.1
20190627023109 66 306 0.0 0.0 0.00 0.00 0.00 8 1022.9
20190627021604 66 306 0.0 0.0 0.00 0.00 0.00 7 1022.7
20190627020045 67 306 0.0 0.0 0.00 0.00 0.00 9 1022.5
20190627014555 67 306 0.0 0.0 0.00 0.00 0.00 11 1022.5
20190627013029 68 306 0.0 0.0 0.00 0.00 0.00 13 1022.3
20190627011517 68 306 0.0 0.0 0.00 0.00 0.00 17 1022.2
20190627010032 69 306 0.0 0.0 0.00 0.00 0.00 21 1022.0
20190627004522 69 306 0.0 0.0 0.00 0.00 0.00 23 1021.9
20190627003221 70 306 0.0 0.0 0.00 0.00 0.00 26 1021.7
20190627001620 71 306 0.0 0.0 0.00 0.00 0.00 30 1021.6
20190627000144 72 306 0.0 0.0 0.00 0.00 0.00 29 1021.6
20190626234644 72 306 0.0 0.0 0.00 0.00 0.00 30 1021.5
20190626233111 73 306 0.0 0.0 0.00 0.00 0.00 29 1021.5
20190626231603 73 306 0.0 0.0 0.00 0.00 0.00 28 1021.4
20190626230047 73 306 0.0 0.0 0.00 0.00 0.00 29 1021.4
20190626224618 73 306 0.0 0.0 0.00 0.00 0.00 35 1021.3
20190626223041 73 306 0.0 0.0 0.00 0.00 0.00 38 1021.4
20190626221538 73 306 0.0 0.0 0.00 0.00 0.00 37 1021.4
20190626220025 73 306 0.0 0.0 0.00 0.00 0.00 47 1021.3
20190626214510 73 306 0.0 0.0 0.00 0.00 0.00 58 1021.3
20190626213007 74 306 0.0 0.0 0.00 0.00 0.00 61 1021.1
20190626211647 74 306 0.0 0.0 0.00 0.00 0.00 67 1021.1
20190626210156 74 306 0.0 0.0 0.00 0.00 0.00 68 1021.2
20190626204643 75 306 0.0 0.0 0.00 0.00 0.00 70 1021.2
20190626203208 75 306 0.0 0.0 0.00 0.00 0.00 72 1021.2
20190626201547 76 306 0.0 0.0 0.00 0.00 0.00 71 1021.1
20190626200105 77 306 0.0 0.0 0.00 0.00 0.00 72 1021.1
20190626194603 77 306 0.0 0.0 0.00 0.00 0.00 70 1021.1
20190626193034 78 306 0.0 0.0 0.00 0.00 0.00 71 1021.1
20190626191536 79 306 0.0 0.0 0.00 0.00 0.00 71 1021.3
20190626190044 79 292 0.0 0.0 0.00 0.00 0.00 63 1021.4
20190626184531 80 292 0.0 0.0 0.00 0.00 0.00 70 1021.6
20190626183012 80 292 0.0 0.0 0.00 0.00 0.00 69 1021.5
20190626181509 79 300 0.0 0.0 0.00 0.00 0.00 70 1021.6
20190626174718 78 90 0.0 0.0 0.00 0.00 0.00 70 1021.6
20190626173125 78 311 0.0 0.0 0.00 0.00 0.00 71 1021.8
20190626171616 77 36 0.0 0.0 0.00 0.00 0.00 70 1022.1
20190626170133 76 23 0.0 0.0 0.00 0.00 0.00 70 1022.5
20190626164608 76 23 0.0 0.0 0.00 0.00 0.00 70 1022.7
20190626163106 76 187 0.0 0.0 0.00 0.00 0.00 68 1022.8
20190626161549 75 160 0.0 0.0 0.00 0.00 0.00 64 1022.9
20190626160049 74 160 0.0 0.0 0.00 0.00 0.00 65 1022.9
20190626154600 73 160 0.0 0.0 0.00 0.00 0.00 57 1022.8
20190626153027 72 160 0.0 0.0 0.00 0.00 0.00 53 1022.9
20190626151602 72 160 0.0 0.0 0.00 0.00 0.00 50 1022.9
20190626150008 70 160 0.0 0.0 0.00 0.00 0.00 47 1023.0
20190626144505 69 160 0.0 0.0 0.00 0.00 0.00 35 1023.1
20190626143153 68 160 0.0 0.0 0.00 0.00 0.00 19 1023.2
20190626141725 66 160 0.0 0.0 0.00 0.00 0.00 1 1023.2
20190626140212 64 160 0.0 0.0 0.00 0.00 0.00 1 1023.1
20190626134646 63 160 0.0 0.0 0.00 0.00 0.00 1 1023.1
20190626133104 61 160 0.0 0.0 0.00 0.00 0.00 1 1023.1
20190626131619 60 160 0.0 0.0 0.00 0.00 0.00 1 1023.0
20190626130114 59 160 0.0 0.0 0.00 0.00 0.00 1 1022.9
20190626124607 57 160 0.0 0.0 0.00 0.00 0.00 1 1022.9
20190626123059 56 160 0.0 0.0 0.00 0.00 0.00 1 1022.8
20190626121535 55 160 0.0 0.0 0.00 0.00 0.00 2 1022.7
20190626120034 55 160 0.0 0.0 0.00 0.00 0.00 4 1022.7
20190626114515 54 160 0.0 0.0 0.00 0.00 0.00 6 1022.7
20190626113010 54 160 0.0 0.0 0.00 0.00 0.00 7 1022.6
20190626111810 54 160 0.0 0.0 0.00 0.00 0.00 7 1022.4
20190626110142 54 160 0.0 0.0 0.00 0.00 0.00 9 1022.4
20190626104641 54 160 0.0 0.0 0.00 0.00 0.00 9 1022.4
20190626103132 54 160 0.0 0.0 0.00 0.00 0.00 9 1022.1
20190626101607 54 160 0.0 0.0 0.00 0.00 0.00 10 1021.8
20190626100124 55 160 0.0 0.0 0.00 0.00 0.00 10 1021.7
20190626094607 55 160 0.0 0.0 0.00 0.00 0.00 10 1021.8
20190626093051 55 160 0.0 0.0 0.00 0.00 0.00 11 1021.6
20190626090041 55 160 0.0 0.0 0.00 0.00 0.00 12 1021.2
20190626084521 56 160 0.0 0.0 0.00 0.00 0.00 12 1021.1
20190626083022 56 160 0.0 0.0 0.00 0.00 0.00 13 1021.1
20190626081511 57 160 0.0 0.0 0.00 0.00 0.00 14 1021.2
20190626080005 57 160 0.0 0.0 0.00 0.00 0.00 18 1021.2
20190626074649 58 160 0.0 0.0 0.00 0.00 0.00 17 1021.1
20190626071713 58 160 0.0 0.0 0.00 0.00 0.00 13 1021.1
20190626070052 58 161 0.0 0.0 0.00 0.00 0.00 12 1021.0
20190626064605 59 159 0.0 0.0 0.00 0.00 0.00 9 1020.8
20190626063046 59 159 0.0 0.0 0.00 0.00 0.00 6 1021.0
20190626061555 59 159 0.0 0.0 0.00 0.00 0.00 4 1021.0